Flight Track Log - Related Links

Times and Time Zones

All times are in EDT time to prevent confusion due to time zone crossing. See the UPS1121 flight status page for this flight to view local times or setup timezone preferences in your user account.

Time Position Orientation Groundspeed Altitude Reporting Facility
EDT Latitude Longitude Course Direction KTS MPH feet Rate Location/Type
Wed 08:34:04 PM 42.7339 -73.8081 157° South 130 150 1,800  Level Boston Center
Wed 08:35:16 PM 42.6883 -73.7817 157° South 174 200 3,800 2,455 Climbing Boston Center
Wed 08:36:16 PM 42.6247 -73.7042 138° Southeast 217 250 7,200 3,450 Climbing Boston Center
Wed 08:37:16 PM 42.5692 -73.6242 133° Southeast 280 322 10,700 1,850 Climbing Boston Center
Wed 08:38:16 PM 42.5203 -73.5133 121° Southeast 326 375 10,900 164 Climbing Boston Center
Wed 08:39:06 PM 42.4711 -73.4197 125° Southeast 358 412 11,000 74 Climbing Boston Center
Wed 08:39:37 PM 42.4383 -73.3742 134° Southeast 354 407 11,000  Level Boston Center
Wed 08:40:16 PM 42.3950 -73.3117 133° Southeast 354 407 11,000  Level Boston Center
Wed 08:40:37 PM 42.3744 -73.2861 137° Southeast 320 368 11,000  Level Boston Center
Wed 08:41:16 PM 42.3497 -73.2183 116° Southeast 314 361 11,000  Level Boston Center
Wed 08:41:38 PM 42.3333 -73.1786 119° Southeast 307 353 11,000  Level Boston Center
Wed 08:42:16 PM 42.3150 -73.1111 110° East 304 350 11,000 -197 Level Boston Center
Wed 08:42:39 PM 42.2986 -73.0717 119° Southeast 311 358 10,800 -833 Descending Boston Center
Wed 08:43:28 PM 42.2803 -73.0069 111° Southeast 304 350 10,000 -1,461 Descending Boston Center
Wed 08:44:34 PM 42.2350 -72.8747 115° Southeast 308 354 8,000 -1,795 Descending Boston Center
Wed 08:45:35 PM 42.1978 -72.7653 115° Southeast 299 344 6,200 -1,636 Descending Boston Center
Wed 08:46:35 PM 42.1625 -72.6642 115° Southeast 291 335 4,700 -1,091 Descending Boston Center
Wed 08:47:36 PM 42.1169 -72.5942 131° Southeast 247 284 4,000 -595 Descending Boston Center
Wed 08:48:36 PM 42.0689 -72.5575 150° Southeast 187 215 3,500 -716 Descending Boston Center
Wed 08:49:25 PM 42.0419 -72.5686 197° South 140 161 2,700 -818 Descending Boston Center
Wed 08:50:26 PM 42.0106 -72.5911 208° Southwest 124 143 2,000 -645 Descending Boston Center
Wed 08:51:26 PM 41.9897 -72.6189 225° Southwest 110 127 1,400 -595 Descending Boston Center
Wed 08:52:27 PM 41.9689 -72.6467 225° Southwest 101 116 800 -590 Descending Boston Center

Login

Don't have an account? Register now (free) for customized features, flight alerts, and more!